Minot, ND

4:39 AM CDT on June 25, 2017 (GMT -0500)
Minot International

Weather History for KMOT - March, 2015

Change the Weather History Date:

Tuesday, March 3, 2015

  Actual Average Record
Temperature  
Mean Temperature 7 °F 22 °F  
Max Temperature 15 °F 30 °F 56 °F (2000)
Min Temperature -2 °F 14 °F -23 °F (1917)
Degree Days  
Heating Degree Days 58 43  
Month to date heating degree days 155 129  
Since 1 July heating degree days 6843 6705  
Cooling Degree Days 0 0  
Month to date cooling degree days 0 0  
Year to date cooling degree days 0 0  
Moisture  
Dew Point -5 °F    
Average Humidity 69    
Maximum Humidity 76    
Minimum Humidity 62    
Precipitation  
Precipitation T in 0.02 in 1.00 in (1919)
Month to date precipitation T 0.05  
Year to date precipitation 0.47 0.96  
Sea Level Pressure  
Sea Level Pressure 30.02 in    
Wind  
Wind Speed 23 mph (WNW)    
Max Wind Speed 38 mph    
Max Gust Speed 45 mph    
Visibility 5 miles    
Events Snow    
T = Trace of Precipitation, MM = Missing Value Source: NWS Daily Summary

Daily Weather History Graph

Daily Weather History Graph

Search for Another Location

Airport or City:

Trip Planner

Search our weather history database for the weather conditions in past years. The results will help you decide how hot, cold, wet, or windy it might be!

Date:

Astronomy

Mar. 03, 2015 Rise Set
Actual Time 7:22 AM CST 6:32 PM CST
Civil Twilight 6:51 AM CST 7:03 PM CST
Nautical Twilight 6:15 AM CST 7:39 PM CST
Astronomical Twilight 5:39 AM CST 8:15 PM CST
Moon 4:52 PM CST (3/3) 6:10 AM CST (3/3)
Length of Visible Light 12h 11m
Length of Day
11h 09m
Waxing Gibbous, 96% of the Moon is Illuminated
Mar 3
Waxing Gibbous
Mar 5
Full
Mar 13
Last Quarter
Mar 20
New
Mar 27
First Quarter

Hourly Weather History & Observations

Time (CST) Temp. Windchill Dew Point Humidity Pressure Visibility Wind Dir Wind Speed Gust Speed Precip Events Conditions
12:54 AM 15.1 °F -4.0 °F 8.1 °F 74% 29.96 in 9.0 mi WNW 25.3 mph 34.5 mph 0.00 in Snow Light Snow
1:06 AM 14.0 °F -5.8 °F 8.1 °F 77% 29.88 in 9.0 mi WNW 26.5 mph 31.1 mph 0.00 in Snow Light Snow
1:41 AM 12.0 °F -9.2 °F 5.0 °F 73% 29.87 in 4.0 mi WNW 28.8 mph 38.0 mph 0.00 in Snow Light Snow
1:52 AM 10.4 °F -12.0 °F 5.0 °F 79% 29.88 in 5.0 mi WNW 31.1 mph 38.0 mph 0.00 in Snow Light Snow
1:54 AM 10.9 °F -10.6 °F 5.0 °F 77% 29.97 in 5.0 mi WNW 28.8 mph 38.0 mph 0.00 in Snow Light Snow
2:06 AM 10.9 °F -10.3 °F 3.9 °F 73% 29.88 in 7.0 mi WNW 27.6 mph 36.8 mph 0.00 in Snow Light Snow
2:37 AM 9.0 °F -13.3 °F 1.9 °F 73% 29.91 in 5.0 mi WNW 28.8 mph 39.1 mph 0.00 in Snow Light Snow
2:54 AM 8.1 °F -14.9 °F 1.0 °F 73% 30.01 in 5.0 mi WNW 29.9 mph - 0.00 in Snow Light Snow
3:54 AM 6.1 °F -16.5 °F -2.0 °F 69% 30.01 in 9.0 mi WNW 26.5 mph 32.2 mph 0.00 in Snow Light Snow
4:54 AM 3.0 °F -19.3 °F -5.1 °F 69% 30.03 in 9.0 mi WNW 23.0 mph 29.9 mph 0.00 in Snow Light Snow
5:54 AM 1.9 °F -21.6 °F -7.1 °F 66% 30.06 in 8.0 mi WNW 25.3 mph - 0.00 in Snow Light Snow
6:54 AM 1.0 °F -21.4 °F -9.0 °F 63% 30.08 in 10.0 mi WNW 21.9 mph - 0.00 in   Clear
7:54 AM 1.0 °F -21.9 °F -8.0 °F 66% 30.09 in 10.0 mi WNW 23.0 mph - N/A   Clear
8:43 AM 1.0 °F -22.4 °F -8.0 °F 66% 30.00 in 10.0 mi West 24.2 mph 28.8 mph N/A   Mostly Cloudy
8:54 AM 1.0 °F -20.9 °F -7.1 °F 69% 30.12 in 9.0 mi WNW 20.7 mph - N/A   Overcast
9:54 AM 1.9 °F -21.6 °F -7.1 °F 66% 30.13 in 3.0 mi WNW 25.3 mph 33.4 mph 0.00 in Snow Light Snow
10:04 AM 1.9 °F -21.6 °F -6.0 °F 69% 30.01 in 1.8 mi WNW 25.3 mph 32.2 mph 0.00 in Snow Light Snow
10:54 AM 1.9 °F -23.2 °F -6.0 °F 69% 30.12 in 1.5 mi WNW 29.9 mph 39.1 mph 0.00 in Snow Light Snow
11:04 AM 3.0 °F -20.2 °F -6.0 °F 66% 30.00 in 3.0 mi WNW 25.3 mph 36.8 mph 0.00 in Snow Light Snow
11:26 AM 3.9 °F -20.5 °F -5.1 °F 66% 30.00 in 2.0 mi West 29.9 mph 38.0 mph 0.00 in Snow Light Snow
11:33 AM 3.9 °F -20.1 °F -5.1 °F 66% 30.00 in 1.2 mi West 28.8 mph 38.0 mph 0.00 in Snow Light Snow
11:44 AM 3.0 °F -22.8 °F -5.1 °F 69% 30.00 in 0.8 mi WNW 33.4 mph 41.4 mph 0.00 in Snow Light Snow
11:54 AM 3.9 °F -20.1 °F -5.1 °F 66% 30.12 in 1.5 mi West 28.8 mph 36.8 mph 0.00 in Snow Light Snow
12:54 PM 3.9 °F -20.9 °F -6.0 °F 64% 30.12 in 1.5 mi West 31.1 mph 41.4 mph 0.00 in Snow Light Snow
1:09 PM 3.0 °F -22.4 °F -7.1 °F 63% 29.99 in 2.5 mi WNW 32.2 mph 40.3 mph 0.00 in Snow Light Snow
1:16 PM 3.0 °F -20.2 °F -7.1 °F 63% 29.99 in 3.0 mi WNW 25.3 mph 40.3 mph 0.00 in Snow Light Snow
1:44 PM 3.9 °F -20.5 °F -5.1 °F 66% 29.99 in 1.8 mi West 29.9 mph 42.6 mph 0.00 in Snow Light Snow
1:54 PM 3.0 °F -21.4 °F -5.1 °F 69% 30.11 in 1.0 mi WNW 28.8 mph 35.7 mph 0.00 in Snow Light Snow
2:12 PM 5.0 °F -18.7 °F -5.1 °F 63% 29.98 in 3.0 mi West 28.8 mph 35.7 mph 0.00 in Snow Light Snow
2:22 PM 5.0 °F -19.4 °F -6.0 °F 61% 29.98 in 2.0 mi West 31.1 mph 44.9 mph 0.00 in Snow Light Snow
2:44 PM 3.9 °F -20.1 °F -6.0 °F 64% 29.97 in 4.0 mi WNW 28.8 mph 38.0 mph 0.00 in Snow Light Snow
2:54 PM 3.0 °F -21.0 °F -6.0 °F 66% 30.10 in 5.0 mi WNW 27.6 mph 33.4 mph 0.00 in Snow Light Snow
3:14 PM 3.0 °F -20.6 °F -6.0 °F 66% 29.97 in 1.8 mi West 26.5 mph 36.8 mph 0.00 in Snow Light Snow
3:39 PM 3.9 °F -18.1 °F -6.0 °F 64% 29.97 in 2.5 mi WNW 23.0 mph 32.2 mph 0.00 in Snow Light Snow
3:54 PM 3.9 °F -19.4 °F -6.0 °F 64% 30.10 in 3.0 mi West 26.5 mph 34.5 mph 0.00 in Snow Light Snow
4:54 PM 3.9 °F -20.1 °F -7.1 °F 60% 30.10 in 4.0 mi West 28.8 mph 36.8 mph 0.00 in Snow Blowing Snow
5:52 PM 1.4 °F -21.9 °F -9.4 °F 61% 29.98 in 9.0 mi West 24.2 mph 32.2 mph N/A Snow Blowing Snow
5:54 PM 1.9 °F -21.2 °F -9.0 °F 60% 30.12 in 9.0 mi West 24.2 mph - N/A Snow Blowing Snow
6:54 PM 1.0 °F -18.7 °F -9.0 °F 63% 30.13 in 10.0 mi West 16.1 mph - N/A   Clear
7:54 PM 1.0 °F -16.6 °F -9.0 °F 63% 30.13 in 10.0 mi WSW 12.7 mph - N/A   Clear
8:54 PM -0.4 °F -19.2 °F -9.4 °F 66% 29.98 in 10.0 mi WSW 13.8 mph - N/A   Scattered Clouds
9:54 PM -2.2 °F -15.6 °F -11.2 °F 66% 29.98 in 10.0 mi SW 6.9 mph - N/A   Scattered Clouds
10:54 PM -0.0 °F -19.4 °F -9.0 °F 66% 30.14 in 10.0 mi West 15.0 mph - N/A   Mostly Cloudy
11:52 PM 1.4 °F -19.9 °F -5.8 °F 72% 30.01 in 2.5 mi WNW 19.6 mph - 0.00 in Snow Light Snow
11:54 PM 1.0 °F -19.3 °F -5.1 °F 75% 30.15 in 2.5 mi WNW 17.3 mph - 0.00 in Snow Light Snow